Time,TemperatureF,DewpointF,PressureIn,WindDirection,WindDirectionDegrees,WindSpeedMPH,WindSpeedGustMPH,Humidity,HourlyPrecipIn,Conditions,Clouds,dailyrainin,SoftwareType,DateUTC
2013-10-25 00:02:00,47.3,40.5,29.94,NNW,348,0.0,0.0,77,0.00,,,0.00,VWS V14.01,2013-10-25 07:02:00,
2013-10-25 00:07:00,47.3,40.5,29.94,NNW,348,0.0,0.0,77,0.00,,,0.00,VWS V14.01,2013-10-25 07:07:00,
2013-10-25 00:12:00,47.3,40.5,29.94,NNW,348,0.0,0.0,77,0.00,,,0.00,VWS V14.01,2013-10-25 07:12:00,
2013-10-25 00:17:00,47.3,40.5,29.94,NNW,348,0.0,0.0,77,0.00,,,0.00,VWS V14.01,2013-10-25 07:17:00,
2013-10-25 00:23:00,47.1,40.3,29.94,NNE,26,0.0,2.2,77,0.00,,,0.00,VWS V14.01,2013-10-25 07:23:00,
2013-10-25 00:29:00,47.1,40.3,29.94,NE,39,3.6,3.6,77,0.00,,,0.00,VWS V14.01,2013-10-25 07:29:00,
2013-10-25 00:34:00,47.1,40.3,29.94,NNW,338,0.0,3.6,77,0.00,,,0.00,VWS V14.01,2013-10-25 07:34:00,
2013-10-25 00:40:00,46.9,40.1,29.94,NNW,338,0.0,0.0,77,0.00,,,0.00,VWS V14.01,2013-10-25 07:40:00,
2013-10-25 00:45:00,46.9,40.1,29.94,NNE,17,0.0,0.0,77,0.00,,,0.00,VWS V14.01,2013-10-25 07:45:00,
2013-10-25 00:51:00,46.8,39.9,29.94,NE,49,0.0,0.0,77,0.00,,,0.00,VWS V14.01,2013-10-25 07:51:00,
2013-10-25 00:57:00,46.8,39.9,29.94,NE,49,0.0,0.0,77,0.00,,,0.00,VWS V14.01,2013-10-25 07:57:00,
2013-10-25 01:02:00,46.8,39.9,29.94,NE,49,0.0,0.0,77,0.00,,,0.00,VWS V14.01,2013-10-25 08:02:00,
2013-10-25 01:07:00,46.8,39.9,29.94,NE,49,0.0,0.0,77,0.00,,,0.00,VWS V14.01,2013-10-25 08:07:00,
2013-10-25 01:12:00,46.8,39.9,29.94,NE,49,0.0,0.0,77,0.00,,,0.00,VWS V14.01,2013-10-25 08:12:00,
2013-10-25 01:18:00,46.8,39.9,29.94,NE,49,0.0,0.0,77,0.00,,,0.00,VWS V14.01,2013-10-25 08:18:00,
2013-10-25 01:23:00,46.8,39.9,29.94,NE,49,0.0,0.0,77,0.00,,,0.00,VWS V14.01,2013-10-25 08:23:00,
2013-10-25 01:29:00,46.8,39.9,29.94,NE,49,0.0,0.0,77,0.00,,,0.00,VWS V14.01,2013-10-25 08:29:00,
2013-10-25 01:35:00,46.8,39.9,29.97,NE,49,0.0,0.0,77,0.00,,,0.00,VWS V14.01,2013-10-25 08:35:00,
2013-10-25 01:40:00,46.6,39.8,29.97,NE,49,0.0,0.0,77,0.00,,,0.00,VWS V14.01,2013-10-25 08:40:00,
2013-10-25 01:46:00,46.6,39.8,29.94,NE,49,0.0,0.0,77,0.00,,,0.00,VWS V14.01,2013-10-25 08:46:00,
2013-10-25 01:51:00,46.6,39.8,29.94,NE,49,0.0,0.0,77,0.00,,,0.00,VWS V14.01,2013-10-25 08:51:00,
2013-10-25 01:57:00,46.6,39.8,29.94,NE,49,0.0,0.0,77,0.00,,,0.00,VWS V14.01,2013-10-25 08:57:00,
2013-10-25 02:03:00,46.6,39.8,29.97,NE,49,0.0,0.0,77,0.00,,,0.00,VWS V14.01,2013-10-25 09:03:00,
2013-10-25 02:08:00,46.4,39.6,29.97,NE,49,0.0,0.0,77,0.00,,,0.00,VWS V14.01,2013-10-25 09:08:00,
2013-10-25 02:13:00,46.4,39.6,29.97,NE,49,0.0,0.0,77,0.00,,,0.00,VWS V14.01,2013-10-25 09:13:00,
2013-10-25 02:18:00,46.4,39.6,29.97,NE,49,0.0,0.0,77,0.00,,,0.00,VWS V14.01,2013-10-25 09:18:00,
2013-10-25 02:24:00,46.2,39.4,29.97,NE,49,0.0,0.0,77,0.00,,,0.00,VWS V14.01,2013-10-25 09:24:00,
2013-10-25 02:30:00,46.2,39.4,29.97,NE,49,0.0,0.0,77,0.00,,,0.00,VWS V14.01,2013-10-25 09:30:00,
2013-10-25 02:35:00,46.2,39.4,29.94,NE,49,0.0,0.0,77,0.00,,,0.00,VWS V14.01,2013-10-25 09:35:00,
2013-10-25 02:41:00,46.0,39.2,29.94,NE,49,0.0,0.0,77,0.00,,,0.00,VWS V14.01,2013-10-25 09:41:00,
2013-10-25 02:46:00,46.0,39.2,29.94,NE,49,0.0,0.0,77,0.00,,,0.00,VWS V14.01,2013-10-25 09:46:00,
2013-10-25 02:51:00,46.0,39.2,29.94,NE,49,0.0,0.0,77,0.00,,,0.00,VWS V14.01,2013-10-25 09:51:00,
2013-10-25 02:57:00,46.0,39.2,29.94,NE,49,0.0,0.0,77,0.00,,,0.00,VWS V14.01,2013-10-25 09:57:00,
2013-10-25 03:03:00,45.9,39.1,29.94,NE,49,0.0,0.0,77,0.00,,,0.00,VWS V14.01,2013-10-25 10:03:00,
2013-10-25 03:09:00,45.9,39.1,29.94,NE,49,0.0,0.0,77,0.00,,,0.00,VWS V14.01,2013-10-25 10:09:00,
2013-10-25 03:14:00,45.9,39.1,29.94,NE,49,0.0,0.0,77,0.00,,,0.00,VWS V14.01,2013-10-25 10:14:00,
2013-10-25 03:19:00,45.9,39.1,29.97,NE,49,0.0,0.0,77,0.00,,,0.00,VWS V14.01,2013-10-25 10:19:00,
2013-10-25 03:25:00,45.9,39.1,29.97,NE,49,0.0,0.0,77,0.00,,,0.00,VWS V14.01,2013-10-25 10:25:00,
2013-10-25 03:30:00,45.9,39.1,29.97,NE,49,0.0,0.0,77,0.00,,,0.00,VWS V14.01,2013-10-25 10:30:00,
2013-10-25 03:35:00,45.9,39.1,29.97,NE,49,0.0,0.0,77,0.00,,,0.00,VWS V14.01,2013-10-25 10:35:00,
2013-10-25 03:41:00,45.9,39.1,29.97,NE,49,0.0,0.0,77,0.00,,,0.00,VWS V14.01,2013-10-25 10:41:00,
2013-10-25 03:47:00,45.9,39.1,29.97,NE,49,0.0,0.0,77,0.00,,,0.00,VWS V14.01,2013-10-25 10:47:00,
2013-10-25 03:52:00,45.9,39.1,29.97,NE,49,0.0,0.0,77,0.00,,,0.00,VWS V14.01,2013-10-25 10:52:00,
2013-10-25 03:58:00,45.9,39.4,29.97,NE,49,0.0,0.0,78,0.00,,,0.00,VWS V14.01,2013-10-25 10:58:00,
2013-10-25 04:03:00,45.9,39.4,29.97,NE,49,0.0,0.0,78,0.00,,,0.00,VWS V14.01,2013-10-25 11:03:00,
2013-10-25 04:09:00,45.9,39.4,29.97,NE,49,0.0,0.0,78,0.00,,,0.00,VWS V14.01,2013-10-25 11:09:00,
2013-10-25 04:14:00,46.0,39.6,29.97,NE,49,0.0,0.0,78,0.00,,,0.00,VWS V14.01,2013-10-25 11:14:00,
2013-10-25 04:20:00,46.0,39.6,29.97,NE,49,0.0,0.0,78,0.00,,,0.00,VWS V14.01,2013-10-25 11:20:00,
2013-10-25 04:26:00,46.0,39.6,29.97,NE,49,0.0,0.0,78,0.00,,,0.00,VWS V14.01,2013-10-25 11:26:00,
2013-10-25 04:31:00,46.0,39.6,29.97,NE,49,0.0,0.0,78,0.00,,,0.00,VWS V14.01,2013-10-25 11:31:00,
2013-10-25 04:36:00,46.0,39.6,29.97,NE,49,0.0,0.0,78,0.00,,,0.00,VWS V14.01,2013-10-25 11:36:00,
2013-10-25 04:42:00,46.0,39.6,29.97,NE,49,0.0,0.0,78,0.00,,,0.00,VWS V14.01,2013-10-25 11:42:00,
2013-10-25 04:48:00,46.0,39.6,30.00,NE,49,0.0,0.0,78,0.00,,,0.00,VWS V14.01,2013-10-25 11:48:00,
2013-10-25 04:53:00,46.0,39.6,30.00,NE,49,0.0,0.0,78,0.00,,,0.00,VWS V14.01,2013-10-25 11:53:00,
2013-10-25 04:58:00,46.0,39.6,30.00,NE,49,0.0,0.0,78,0.00,,,0.00,VWS V14.01,2013-10-25 11:58:00,
2013-10-25 05:04:00,46.0,39.6,30.00,NE,49,0.0,0.0,78,0.00,,,0.00,VWS V14.01,2013-10-25 12:04:00,
2013-10-25 05:09:00,46.0,39.6,30.00,NE,49,0.0,0.0,78,0.00,,,0.00,VWS V14.01,2013-10-25 12:09:00,
2013-10-25 05:15:00,46.0,39.6,29.97,NE,49,0.0,0.0,78,0.00,,,0.00,VWS V14.01,2013-10-25 12:15:00,
2013-10-25 05:20:00,46.0,39.6,29.97,NE,49,0.0,0.0,78,0.00,,,0.00,VWS V14.01,2013-10-25 12:20:00,
2013-10-25 05:26:00,46.0,39.6,29.97,NE,49,0.0,0.0,78,0.00,,,0.00,VWS V14.01,2013-10-25 12:26:00,
2013-10-25 05:32:00,46.0,39.6,30.00,NE,49,0.0,0.0,78,0.00,,,0.00,VWS V14.01,2013-10-25 12:32:00,
2013-10-25 05:38:00,46.0,39.6,30.00,NE,49,0.0,0.0,78,0.00,,,0.00,VWS V14.01,2013-10-25 12:38:00,
2013-10-25 05:44:00,46.0,39.6,30.00,NE,49,0.0,0.0,78,0.00,,,0.00,VWS V14.01,2013-10-25 12:44:00,
2013-10-25 05:49:00,46.0,39.6,30.00,NE,49,0.0,0.0,78,0.00,,,0.00,VWS V14.01,2013-10-25 12:49:00,
2013-10-25 05:54:00,46.0,39.6,30.00,NE,49,0.0,0.0,78,0.00,,,0.00,VWS V14.01,2013-10-25 12:54:00,
2013-10-25 05:59:00,46.0,39.6,30.00,NE,49,0.0,0.0,78,0.00,,,0.00,VWS V14.01,2013-10-25 12:59:00,
2013-10-25 06:05:00,46.0,39.6,30.00,NE,49,0.0,0.0,78,0.00,,,0.00,VWS V14.01,2013-10-25 13:05:00,
2013-10-25 06:11:00,46.0,39.6,30.00,NE,49,0.0,0.0,78,0.00,,,0.00,VWS V14.01,2013-10-25 13:11:00,
2013-10-25 06:16:00,46.0,39.6,30.00,NE,49,0.0,0.0,78,0.00,,,0.00,VWS V14.01,2013-10-25 13:16:00,
2013-10-25 06:22:00,46.0,39.6,30.00,NE,49,0.0,0.0,78,0.00,,,0.00,VWS V14.01,2013-10-25 13:22:00,
2013-10-25 06:27:00,46.0,39.6,30.00,NE,49,0.0,0.0,78,0.00,,,0.00,VWS V14.01,2013-10-25 13:27:00,
2013-10-25 06:33:00,45.9,39.4,30.00,NE,49,0.0,0.0,78,0.00,,,0.00,VWS V14.01,2013-10-25 13:33:00,
2013-10-25 06:38:00,46.0,39.6,30.00,NE,49,0.0,0.0,78,0.00,,,0.00,VWS V14.01,2013-10-25 13:38:00,
2013-10-25 06:43:00,46.0,39.6,30.00,NE,49,0.0,0.0,78,0.00,,,0.00,VWS V14.01,2013-10-25 13:43:00,
2013-10-25 06:49:00,46.0,39.6,30.00,NE,49,0.0,0.0,78,0.00,,,0.00,VWS V14.01,2013-10-25 13:49:00,
2013-10-25 06:54:00,46.0,39.6,30.00,NE,49,0.0,0.0,78,0.00,,,0.00,VWS V14.01,2013-10-25 13:54:00,
2013-10-25 07:00:00,46.0,39.6,30.00,NE,49,0.0,0.0,78,0.00,,,0.00,VWS V14.01,2013-10-25 14:00:00,
2013-10-25 07:05:00,46.0,39.6,30.00,NE,49,0.0,0.0,78,0.00,,,0.00,VWS V14.01,2013-10-25 14:05:00,
2013-10-25 07:10:00,45.9,39.4,30.00,NE,49,0.0,0.0,78,0.00,,,0.00,VWS V14.01,2013-10-25 14:10:00,
2013-10-25 07:15:00,46.0,39.6,30.00,NE,49,0.0,0.0,78,0.00,,,0.00,VWS V14.01,2013-10-25 14:15:00,
2013-10-25 07:21:00,45.9,39.4,30.00,NE,49,0.0,0.0,78,0.00,,,0.00,VWS V14.01,2013-10-25 14:21:00,
2013-10-25 07:26:00,45.9,39.4,30.00,NE,49,0.0,0.0,78,0.00,,,0.00,VWS V14.01,2013-10-25 14:26:00,
2013-10-25 07:32:00,45.9,39.4,30.00,NE,49,0.0,0.0,78,0.00,,,0.00,VWS V14.01,2013-10-25 14:32:00,
2013-10-25 07:37:00,45.9,39.4,30.00,NE,49,0.0,0.0,78,0.00,,,0.00,VWS V14.01,2013-10-25 14:37:00,
2013-10-25 07:43:00,45.9,39.4,30.00,NE,49,0.0,0.0,78,0.00,,,0.00,VWS V14.01,2013-10-25 14:43:00,
2013-10-25 07:48:00,45.9,39.4,30.00,NE,49,0.0,0.0,78,0.00,,,0.00,VWS V14.01,2013-10-25 14:48:00,
2013-10-25 07:54:00,45.9,39.4,30.00,NNW,341,0.0,3.1,78,0.00,,,0.00,VWS V14.01,2013-10-25 14:54:00,
2013-10-25 08:00:00,45.9,39.4,30.00,NNW,341,0.0,0.0,78,0.00,,,0.00,VWS V14.01,2013-10-25 15:00:00,
2013-10-25 08:05:00,45.9,39.4,30.03,NNW,341,0.0,0.0,78,0.00,,OVC008,0.00,VWS V14.01,2013-10-25 15:05:00,
2013-10-25 08:11:00,45.7,39.2,30.03,NW,307,0.0,0.0,78,0.00,,OVC008,0.00,VWS V14.01,2013-10-25 15:11:00,
2013-10-25 08:17:00,45.7,39.2,30.03,North,9,0.0,0.0,78,0.00,,OVC008,0.00,VWS V14.01,2013-10-25 15:17:00,
2013-10-25 08:22:00,45.7,39.2,30.03,North,9,0.0,0.0,78,0.00,,OVC008,0.00,VWS V14.01,2013-10-25 15:22:00,
2013-10-25 08:28:00,45.5,39.0,30.03,WNW,288,0.0,0.0,78,0.00,,OVC008,0.00,VWS V14.01,2013-10-25 15:28:00,
2013-10-25 08:33:00,45.5,39.0,30.03,WNW,288,0.0,3.1,78,0.00,,OVC008,0.00,VWS V14.01,2013-10-25 15:33:00,
2013-10-25 08:39:00,45.5,39.0,30.03,WNW,288,0.0,0.0,78,0.00,,OVC008,0.00,VWS V14.01,2013-10-25 15:39:00,
2013-10-25 08:45:00,45.5,39.0,30.03,WNW,288,0.0,0.0,78,0.00,,OVC008,0.00,VWS V14.01,2013-10-25 15:45:00,
2013-10-25 08:50:00,45.5,39.0,30.03,WNW,288,0.0,0.0,78,0.00,,OVC008,0.00,VWS V14.01,2013-10-25 15:50:00,
2013-10-25 08:55:00,45.5,39.0,30.03,WNW,299,4.0,4.0,78,0.00,,OVC008,0.00,VWS V14.01,2013-10-25 15:55:00,
2013-10-25 09:00:00,45.5,39.0,30.06,NW,306,0.0,2.2,78,0.00,,,0.00,VWS V14.01,2013-10-25 16:00:00,
2013-10-25 09:06:00,45.5,39.0,30.06,NE,34,0.0,0.0,78,0.00,,,0.00,VWS V14.01,2013-10-25 16:06:00,
2013-10-25 09:11:00,45.5,39.0,30.06,NE,34,0.0,0.0,78,0.00,,,0.00,VWS V14.01,2013-10-25 16:11:00,
2013-10-25 09:17:00,45.5,39.4,30.06,NW,320,0.0,0.0,79,0.00,,,0.00,VWS V14.01,2013-10-25 16:17:00,
2013-10-25 09:22:00,45.7,39.5,30.06,NNW,330,2.7,6.3,79,0.00,,,0.00,VWS V14.01,2013-10-25 16:22:00,
2013-10-25 09:28:00,45.5,39.4,30.06,NW,316,2.2,4.0,79,0.00,,,0.00,VWS V14.01,2013-10-25 16:28:00,
2013-10-25 09:34:00,45.5,39.4,30.06,NW,314,0.0,0.0,79,0.00,,,0.00,VWS V14.01,2013-10-25 16:34:00,
2013-10-25 09:39:00,45.7,39.5,30.06,NW,314,0.0,0.0,79,0.00,,,0.00,VWS V14.01,2013-10-25 16:39:00,
2013-10-25 09:45:00,45.9,39.7,30.03,NW,314,0.0,0.0,79,0.00,,,0.00,VWS V14.01,2013-10-25 16:45:00,
2013-10-25 09:50:00,45.9,39.7,30.03,NW,314,0.0,0.0,79,0.00,,,0.00,VWS V14.01,2013-10-25 16:50:00,
2013-10-25 09:56:00,45.9,39.7,30.03,NW,312,3.1,3.1,79,0.00,,,0.00,VWS V14.01,2013-10-25 16:56:00,
2013-10-25 10:01:00,46.0,39.9,30.06,NW,312,0.0,0.0,79,0.00,,OVC008,0.00,VWS V14.01,2013-10-25 17:01:00,
2013-10-25 10:07:00,46.2,40.1,30.06,NW,312,0.0,2.7,79,0.00,,OVC008,0.00,VWS V14.01,2013-10-25 17:07:00,
2013-10-25 10:13:00,46.4,39.9,30.06,NW,312,0.0,0.0,78,0.00,,OVC008,0.00,VWS V14.01,2013-10-25 17:13:00,
2013-10-25 10:18:00,46.6,40.1,30.06,NW,324,0.0,3.1,78,0.00,,OVC008,0.00,VWS V14.01,2013-10-25 17:18:00,
2013-10-25 10:24:00,46.6,40.1,30.06,NW,324,0.0,2.7,78,0.00,,OVC008,0.00,VWS V14.01,2013-10-25 17:24:00,
2013-10-25 10:30:00,46.8,40.3,30.06,NW,324,0.0,0.0,78,0.00,,OVC008,0.00,VWS V14.01,2013-10-25 17:30:00,
2013-10-25 10:35:00,46.9,40.8,30.06,NW,324,0.0,3.1,79,0.00,,OVC008,0.00,VWS V14.01,2013-10-25 17:35:00,
2013-10-25 10:40:00,47.1,41.0,30.06,NW,324,0.0,0.0,79,0.00,,OVC008,0.00,VWS V14.01,2013-10-25 17:40:00,
2013-10-25 10:45:00,47.3,41.1,30.06,NW,324,0.0,0.0,79,0.00,,OVC008,0.00,VWS V14.01,2013-10-25 17:45:00,
2013-10-25 10:51:00,47.5,41.3,30.06,NW,324,0.0,0.0,79,0.00,,OVC008,0.00,VWS V14.01,2013-10-25 17:51:00,
2013-10-25 10:56:00,47.7,41.5,30.06,NW,324,0.0,0.0,79,0.00,,OVC008,0.00,VWS V14.01,2013-10-25 17:56:00,
2013-10-25 11:02:00,47.8,41.7,30.06,NW,324,0.0,0.0,79,0.00,,OVC011,0.00,VWS V14.01,2013-10-25 18:02:00,
2013-10-25 11:07:00,48.2,42.0,30.06,NW,324,0.0,0.0,79,0.00,,OVC011,0.00,VWS V14.01,2013-10-25 18:07:00,
2013-10-25 11:12:00,48.4,42.2,30.06,NW,324,0.0,0.0,79,0.00,,OVC011,0.00,VWS V14.01,2013-10-25 18:12:00,
2013-10-25 11:17:00,48.6,42.3,30.06,NW,324,0.0,0.0,79,0.00,,OVC011,0.00,VWS V14.01,2013-10-25 18:17:00,
2013-10-25 11:23:00,48.9,42.7,30.06,NW,324,0.0,0.0,79,0.00,,OVC011,0.00,VWS V14.01,2013-10-25 18:23:00,
2013-10-25 11:28:00,49.1,42.9,30.06,NW,324,0.0,0.0,79,0.00,,OVC011,0.00,VWS V14.01,2013-10-25 18:28:00,
2013-10-25 11:34:00,49.3,43.0,30.06,NW,324,0.0,0.0,79,0.00,,OVC011,0.00,VWS V14.01,2013-10-25 18:34:00,
2013-10-25 11:39:00,49.5,43.2,30.06,NW,324,0.0,0.0,79,0.00,,OVC011,0.00,VWS V14.01,2013-10-25 18:39:00,
2013-10-25 11:45:00,49.5,43.2,30.09,NW,324,0.0,0.0,79,0.00,,OVC011,0.00,VWS V14.01,2013-10-25 18:45:00,
2013-10-25 11:50:00,49.6,43.4,30.09,NW,324,0.0,0.0,79,0.00,,OVC011,0.00,VWS V14.01,2013-10-25 18:50:00,
2013-10-25 11:56:00,49.8,43.6,30.09,NW,324,0.0,0.0,79,0.00,,OVC011,0.00,VWS V14.01,2013-10-25 18:56:00,
2013-10-25 12:02:00,50.0,43.8,30.09,NW,324,0.0,0.0,79,0.00,,OVC013,0.00,VWS V14.01,2013-10-25 19:02:00,
2013-10-25 12:07:00,50.2,43.9,30.09,NW,324,0.0,0.0,79,0.00,,OVC013,0.00,VWS V14.01,2013-10-25 19:07:00,
2013-10-25 12:13:00,50.2,43.9,30.09,NW,324,0.0,0.0,79,0.00,,OVC013,0.00,VWS V14.01,2013-10-25 19:13:00,
2013-10-25 12:18:00,50.2,43.9,30.09,NW,324,0.0,0.0,79,0.00,,OVC013,0.00,VWS V14.01,2013-10-25 19:18:00,
2013-10-25 12:24:00,50.4,44.1,30.09,NW,324,0.0,0.0,79,0.00,,OVC013,0.00,VWS V14.01,2013-10-25 19:24:00,
2013-10-25 12:29:00,50.5,44.3,30.09,NW,324,0.0,0.0,79,0.00,,OVC013,0.00,VWS V14.01,2013-10-25 19:29:00,
2013-10-25 12:34:00,50.7,44.5,30.09,NW,324,0.0,0.0,79,0.00,,OVC013,0.00,VWS V14.01,2013-10-25 19:34:00,
2013-10-25 12:40:00,50.9,44.6,30.09,NW,324,0.0,0.0,79,0.00,,OVC013,0.00,VWS V14.01,2013-10-25 19:40:00,
2013-10-25 12:45:00,51.1,44.8,30.09,NW,324,0.0,0.0,79,0.00,,OVC013,0.00,VWS V14.01,2013-10-25 19:45:00,
2013-10-25 12:51:00,51.3,45.0,30.09,NW,324,0.0,0.0,79,0.00,,OVC013,0.00,VWS V14.01,2013-10-25 19:51:00,
2013-10-25 12:57:00,51.6,45.3,30.09,NW,324,0.0,0.0,79,0.00,,OVC013,0.00,VWS V14.01,2013-10-25 19:57:00,
2013-10-25 13:02:00,51.6,45.3,30.09,NW,324,0.0,0.0,79,0.00,,OVC019,0.00,VWS V14.01,2013-10-25 20:02:00,
2013-10-25 13:08:00,51.8,45.5,30.09,NW,324,0.0,0.0,79,0.00,,OVC019,0.00,VWS V14.01,2013-10-25 20:08:00,
2013-10-25 13:13:00,52.0,45.7,30.09,NW,324,0.0,0.0,79,0.00,,OVC019,0.00,VWS V14.01,2013-10-25 20:13:00,
2013-10-25 13:19:00,52.0,45.7,30.09,NW,324,0.0,0.0,79,0.00,,OVC019,0.00,VWS V14.01,2013-10-25 20:19:00,
2013-10-25 13:25:00,52.2,45.8,30.09,NW,324,0.0,0.0,79,0.00,,OVC019,0.00,VWS V14.01,2013-10-25 20:25:00,
2013-10-25 13:30:00,52.2,45.8,30.09,NW,324,0.0,0.0,79,0.00,,OVC019,0.00,VWS V14.01,2013-10-25 20:30:00,
2013-10-25 13:36:00,52.2,45.8,30.09,NW,324,0.0,0.0,79,0.00,,OVC019,0.00,VWS V14.01,2013-10-25 20:36:00,
2013-10-25 13:41:00,52.2,45.8,30.09,NW,324,0.0,0.0,79,0.00,,OVC019,0.00,VWS V14.01,2013-10-25 20:41:00,
2013-10-25 13:47:00,52.2,45.8,30.09,NW,324,0.0,0.0,79,0.00,,OVC019,0.00,VWS V14.01,2013-10-25 20:47:00,
2013-10-25 13:52:00,52.0,45.7,30.09,NW,324,0.0,0.0,79,0.00,,OVC019,0.00,VWS V14.01,2013-10-25 20:52:00,
2013-10-25 13:58:00,52.0,45.7,30.09,NW,324,0.0,0.0,79,0.00,,OVC019,0.00,VWS V14.01,2013-10-25 20:58:00,
2013-10-25 14:03:00,52.0,45.7,30.09,NW,324,0.0,0.0,79,0.00,,,0.00,VWS V14.01,2013-10-25 21:03:00,
2013-10-25 14:08:00,52.0,45.3,30.09,NW,324,0.0,0.0,78,0.00,,,0.00,VWS V14.01,2013-10-25 21:08:00,
2013-10-25 14:14:00,52.2,45.5,30.09,NW,324,0.0,0.0,78,0.00,,,0.00,VWS V14.01,2013-10-25 21:14:00,
2013-10-25 14:19:00,52.2,45.5,30.09,NW,324,0.0,0.0,78,0.00,,,0.00,VWS V14.01,2013-10-25 21:19:00,
2013-10-25 14:25:00,52.2,45.5,30.09,NW,324,0.0,0.0,78,0.00,,,0.00,VWS V14.01,2013-10-25 21:25:00,
2013-10-25 14:30:00,52.0,45.3,30.09,NW,324,0.0,0.0,78,0.00,,,0.00,VWS V14.01,2013-10-25 21:30:00,
2013-10-25 14:36:00,52.0,45.3,30.09,NW,324,0.0,0.0,78,0.00,,,0.00,VWS V14.01,2013-10-25 21:36:00,
2013-10-25 14:41:00,51.8,45.2,30.09,NW,324,0.0,0.0,78,0.00,,,0.00,VWS V14.01,2013-10-25 21:41:00,
2013-10-25 14:47:00,51.6,45.0,30.09,NW,324,0.0,0.0,78,0.00,,,0.00,VWS V14.01,2013-10-25 21:47:00,
2013-10-25 14:53:00,51.6,45.0,30.09,NW,324,0.0,0.0,78,0.00,,,0.00,VWS V14.01,2013-10-25 21:53:00,
2013-10-25 14:58:00,51.6,45.0,30.09,NW,324,0.0,0.0,78,0.00,,,0.00,VWS V14.01,2013-10-25 21:58:00,
2013-10-25 15:04:00,51.6,44.7,30.09,NW,324,0.0,0.0,77,0.00,,OVC020,0.00,VWS V14.01,2013-10-25 22:04:00,
2013-10-25 15:10:00,51.4,44.5,30.09,NW,324,0.0,0.0,77,0.00,,OVC020,0.00,VWS V14.01,2013-10-25 22:10:00,
2013-10-25 15:15:00,51.4,44.5,30.06,NW,324,0.0,0.0,77,0.00,,OVC020,0.00,VWS V14.01,2013-10-25 22:15:00,
2013-10-25 15:21:00,51.4,44.5,30.06,NW,324,0.0,0.0,77,0.00,,OVC020,0.00,VWS V14.01,2013-10-25 22:21:00,
2013-10-25 15:26:00,51.4,44.1,30.06,NW,324,0.0,0.0,76,0.00,,OVC020,0.00,VWS V14.01,2013-10-25 22:26:00,
2013-10-25 15:32:00,51.4,44.1,30.06,NW,324,0.0,0.0,76,0.00,,OVC020,0.00,VWS V14.01,2013-10-25 22:32:00,
2013-10-25 15:38:00,51.4,44.1,30.06,NW,324,0.0,0.0,76,0.00,,OVC020,0.00,VWS V14.01,2013-10-25 22:38:00,
2013-10-25 15:43:00,51.4,44.1,30.06,NW,324,0.0,0.0,76,0.00,,OVC020,0.00,VWS V14.01,2013-10-25 22:43:00,
2013-10-25 15:49:00,51.6,44.0,30.09,NW,324,0.0,0.0,75,0.00,,OVC020,0.00,VWS V14.01,2013-10-25 22:49:00,
2013-10-25 15:54:00,51.6,44.0,30.09,NW,324,0.0,0.0,75,0.00,,OVC020,0.00,VWS V14.01,2013-10-25 22:54:00,
2013-10-25 16:00:00,51.6,44.0,30.09,NW,324,0.0,0.0,75,0.00,,OVC020,0.00,VWS V14.01,2013-10-25 23:00:00,
2013-10-25 16:06:00,51.6,44.0,30.09,NW,324,0.0,0.0,75,0.00,,OVC018,0.00,VWS V14.01,2013-10-25 23:06:00,
2013-10-25 16:11:00,51.6,44.0,30.09,NW,324,0.0,0.0,75,0.00,,OVC018,0.00,VWS V14.01,2013-10-25 23:11:00,
2013-10-25 16:16:00,51.6,43.6,30.06,NW,324,0.0,0.0,74,0.00,,OVC018,0.00,VWS V14.01,2013-10-25 23:16:00,
2013-10-25 16:21:00,51.6,43.6,30.06,NW,324,0.0,0.0,74,0.00,,OVC018,0.00,VWS V14.01,2013-10-25 23:21:00,
2013-10-25 16:27:00,51.4,43.4,30.06,NW,324,0.0,0.0,74,0.00,,OVC018,0.00,VWS V14.01,2013-10-25 23:27:00,
2013-10-25 16:32:00,51.4,43.4,30.06,NW,324,0.0,0.0,74,0.00,,OVC018,0.00,VWS V14.01,2013-10-25 23:32:00,
2013-10-25 16:38:00,51.3,42.9,30.06,NW,324,0.0,0.0,73,0.00,,OVC018,0.00,VWS V14.01,2013-10-25 23:38:00,
2013-10-25 16:43:00,51.3,42.9,30.06,NW,324,0.0,0.0,73,0.00,,OVC018,0.00,VWS V14.01,2013-10-25 23:43:00,
2013-10-25 16:48:00,51.3,42.9,30.09,NW,324,0.0,0.0,73,0.00,,OVC018,0.00,VWS V14.01,2013-10-25 23:48:00,
2013-10-25 16:53:00,51.3,42.9,30.09,NW,324,0.0,0.0,73,0.00,,OVC018,0.00,VWS V14.01,2013-10-25 23:53:00,
2013-10-25 16:59:00,51.3,42.9,30.09,NW,324,0.0,0.0,73,0.00,,OVC018,0.00,VWS V14.01,2013-10-25 23:59:00,
2013-10-25 17:04:00,51.3,42.9,30.09,NW,324,0.0,0.0,73,0.00,,OVC018,0.00,VWS V14.01,2013-10-26 00:04:00,
2013-10-25 17:10:00,51.1,42.7,30.09,NW,324,0.0,0.0,73,0.00,,OVC018,0.00,VWS V14.01,2013-10-26 00:10:00,
2013-10-25 17:16:00,51.1,42.4,30.09,NW,324,0.0,0.0,72,0.00,,OVC018,0.00,VWS V14.01,2013-10-26 00:16:00,
2013-10-25 17:21:00,51.1,42.4,30.09,NW,324,0.0,0.0,72,0.00,,OVC018,0.00,VWS V14.01,2013-10-26 00:21:00,
2013-10-25 17:27:00,50.9,42.2,30.09,NW,324,0.0,0.0,72,0.00,,OVC018,0.00,VWS V14.01,2013-10-26 00:27:00,
2013-10-25 17:32:00,50.9,42.2,30.09,NW,324,0.0,0.0,72,0.00,,OVC018,0.00,VWS V14.01,2013-10-26 00:32:00,
2013-10-25 17:38:00,50.7,42.0,30.09,NW,324,0.0,0.0,72,0.00,,OVC018,0.00,VWS V14.01,2013-10-26 00:38:00,
2013-10-25 17:43:00,50.7,42.0,30.09,NW,324,0.0,0.0,72,0.00,,OVC018,0.00,VWS V14.01,2013-10-26 00:43:00,
2013-10-25 17:49:00,50.7,42.0,30.09,NW,324,0.0,0.0,72,0.00,,OVC018,0.00,VWS V14.01,2013-10-26 00:49:00,
2013-10-25 17:54:00,50.5,41.9,30.09,NW,324,0.0,0.0,72,0.00,,OVC018,0.00,VWS V14.01,2013-10-26 00:54:00,
2013-10-25 18:00:00,50.5,41.9,30.09,NW,324,0.0,0.0,72,0.00,,OVC018,0.00,VWS V14.01,2013-10-26 01:00:00,
2013-10-25 18:06:00,50.5,41.9,30.09,NW,324,0.0,0.0,72,0.00,,,0.00,VWS V14.01,2013-10-26 01:06:00,
2013-10-25 18:11:00,50.5,41.9,30.09,NW,324,0.0,0.0,72,0.00,,,0.00,VWS V14.01,2013-10-26 01:11:00,
2013-10-25 18:16:00,50.5,41.9,30.09,NW,324,0.0,0.0,72,0.00,,,0.00,VWS V14.01,2013-10-26 01:16:00,
2013-10-25 18:21:00,50.4,41.7,30.09,NW,324,0.0,0.0,72,0.00,,,0.00,VWS V14.01,2013-10-26 01:21:00,
2013-10-25 18:27:00,50.4,41.7,30.09,NW,324,0.0,0.0,72,0.00,,,0.00,VWS V14.01,2013-10-26 01:27:00,
2013-10-25 18:32:00,50.2,41.2,30.09,NW,324,0.0,0.0,71,0.00,,,0.00,VWS V14.01,2013-10-26 01:32:00,
2013-10-25 18:38:00,50.2,41.2,30.09,NW,324,0.0,0.0,71,0.00,,,0.00,VWS V14.01,2013-10-26 01:38:00,
2013-10-25 18:43:00,50.2,41.2,30.09,NW,324,0.0,0.0,71,0.00,,,0.00,VWS V14.01,2013-10-26 01:43:00,
2013-10-25 18:49:00,50.2,41.2,30.09,NW,324,0.0,0.0,71,0.00,,,0.00,VWS V14.01,2013-10-26 01:49:00,
2013-10-25 18:55:00,50.0,41.0,30.09,NW,324,0.0,0.0,71,0.00,,,0.00,VWS V14.01,2013-10-26 01:55:00,
2013-10-25 19:00:00,50.0,41.0,30.09,NW,324,0.0,0.0,71,0.00,,,0.00,VWS V14.01,2013-10-26 02:00:00,
2013-10-25 19:06:00,50.0,41.0,30.09,NW,324,0.0,0.0,71,0.00,,OVC022,0.00,VWS V14.01,2013-10-26 02:06:00,
2013-10-25 19:12:00,50.0,41.0,30.09,NW,324,0.0,0.0,71,0.00,,OVC022,0.00,VWS V14.01,2013-10-26 02:12:00,
2013-10-25 19:17:00,49.8,41.2,30.06,NW,324,0.0,0.0,72,0.00,,OVC022,0.00,VWS V14.01,2013-10-26 02:17:00,
2013-10-25 19:23:00,49.8,41.2,30.06,NW,324,0.0,0.0,72,0.00,,OVC022,0.00,VWS V14.01,2013-10-26 02:23:00,
2013-10-25 19:28:00,49.8,41.2,30.06,NW,324,0.0,0.0,72,0.00,,OVC022,0.00,VWS V14.01,2013-10-26 02:28:00,
2013-10-25 19:33:00,49.8,41.2,30.09,NW,324,0.0,0.0,72,0.00,,OVC022,0.00,VWS V14.01,2013-10-26 02:33:00,
2013-10-25 19:39:00,49.6,41.0,30.09,NW,324,0.0,0.0,72,0.00,,OVC022,0.00,VWS V14.01,2013-10-26 02:39:00,
2013-10-25 19:45:00,49.6,41.0,30.09,NW,324,0.0,0.0,72,0.00,,OVC022,0.00,VWS V14.01,2013-10-26 02:45:00,
2013-10-25 19:50:00,49.6,41.0,30.09,NW,324,0.0,0.0,72,0.00,,OVC022,0.00,VWS V14.01,2013-10-26 02:50:00,
2013-10-25 19:55:00,49.6,41.0,30.09,NW,324,0.0,0.0,72,0.00,,OVC022,0.00,VWS V14.01,2013-10-26 02:55:00,
2013-10-25 20:01:00,49.6,41.0,30.09,NW,324,0.0,0.0,72,0.00,,OVC026,0.00,VWS V14.01,2013-10-26 03:01:00,
2013-10-25 20:07:00,49.5,40.8,30.09,NW,324,0.0,0.0,72,0.00,,OVC026,0.00,VWS V14.01,2013-10-26 03:07:00,
2013-10-25 20:13:00,49.5,40.8,30.09,NW,324,0.0,0.0,72,0.00,,OVC026,0.00,VWS V14.01,2013-10-26 03:13:00,
2013-10-25 20:18:00,49.3,40.7,30.09,NW,324,0.0,0.0,72,0.00,,OVC026,0.00,VWS V14.01,2013-10-26 03:18:00,
2013-10-25 20:24:00,48.9,40.3,30.09,NW,324,0.0,0.0,72,0.00,,OVC026,0.00,VWS V14.01,2013-10-26 03:24:00,
2013-10-25 20:30:00,48.4,39.4,30.09,NW,324,0.0,0.0,71,0.00,,OVC026,0.00,VWS V14.01,2013-10-26 03:30:00,
2013-10-25 20:35:00,48.0,39.4,30.09,NW,324,0.0,0.0,72,0.00,,OVC026,0.00,VWS V14.01,2013-10-26 03:35:00,
2013-10-25 20:41:00,47.5,38.6,30.09,NW,324,0.0,0.0,71,0.00,,OVC026,0.00,VWS V14.01,2013-10-26 03:41:00,
2013-10-25 20:46:00,47.1,38.2,30.12,NW,324,0.0,0.0,71,0.00,,OVC026,0.00,VWS V14.01,2013-10-26 03:46:00,
2013-10-25 20:51:00,46.6,37.7,30.12,NW,324,0.0,0.0,71,0.00,,OVC026,0.00,VWS V14.01,2013-10-26 03:51:00,
2013-10-25 20:57:00,46.2,37.3,30.12,NW,324,0.0,0.0,71,0.00,,OVC026,0.00,VWS V14.01,2013-10-26 03:57:00,
2013-10-25 21:02:00,45.7,36.8,30.12,NW,324,0.0,0.0,71,0.00,,,0.00,VWS V14.01,2013-10-26 04:02:00,
2013-10-25 21:03:00,45.7,36.8,30.12,NW,324,0.0,0.0,71,0.00,,,0.00,VWS V14.01,2013-10-26 04:03:00,
2013-10-25 21:06:00,45.5,36.7,30.12,NW,324,0.0,0.0,71,0.00,,,0.00,VWS V14.01,2013-10-26 04:06:00,
2013-10-25 21:10:00,45.1,36.3,30.12,NW,324,0.0,0.0,71,0.00,,,0.00,VWS V14.01,2013-10-26 04:10:00,
2013-10-25 21:11:00,45.1,36.3,30.12,NW,324,0.0,0.0,71,0.00,,,0.00,VWS V14.01,2013-10-26 04:11:00,
2013-10-25 21:12:00,45.0,36.1,30.12,NW,324,0.0,0.0,71,0.00,,,0.00,VWS V14.01,2013-10-26 04:12:00,
2013-10-25 21:17:00,44.6,35.8,30.12,NW,324,0.0,0.0,71,0.00,,,0.00,VWS V14.01,2013-10-26 04:17:00,
2013-10-25 21:23:00,44.1,35.3,30.12,NW,324,0.0,0.0,71,0.00,,,0.00,VWS V14.01,2013-10-26 04:23:00,
2013-10-25 21:28:00,43.9,35.1,30.12,NW,324,0.0,0.0,71,0.00,,,0.00,VWS V14.01,2013-10-26 04:28:00,
2013-10-25 21:34:00,43.7,34.9,30.09,NW,324,0.0,0.0,71,0.00,,,0.00,VWS V14.01,2013-10-26 04:34:00,
2013-10-25 21:39:00,43.5,34.8,30.09,NW,324,0.0,0.0,71,0.00,,,0.00,VWS V14.01,2013-10-26 04:39:00,
2013-10-25 21:44:00,43.3,34.6,30.09,NW,324,0.0,0.0,71,0.00,,,0.00,VWS V14.01,2013-10-26 04:44:00,
2013-10-25 21:49:00,43.0,34.2,30.09,NW,324,0.0,0.0,71,0.00,,,0.00,VWS V14.01,2013-10-26 04:49:00,
2013-10-25 21:55:00,43.0,34.2,30.09,NW,324,0.0,0.0,71,0.00,,,0.00,VWS V14.01,2013-10-26 04:55:00,
2013-10-25 22:01:00,42.8,34.1,30.09,NW,324,0.0,0.0,71,0.00,,,0.00,VWS V14.01,2013-10-26 05:01:00,
2013-10-25 22:06:00,42.6,33.9,30.09,NW,324,0.0,0.0,71,0.00,,,0.00,VWS V14.01,2013-10-26 05:06:00,
2013-10-25 22:12:00,42.6,33.9,30.09,NW,324,0.0,0.0,71,0.00,,,0.00,VWS V14.01,2013-10-26 05:12:00,
2013-10-25 22:18:00,42.4,33.7,30.12,NW,324,0.0,0.0,71,0.00,,,0.00,VWS V14.01,2013-10-26 05:18:00,
2013-10-25 22:23:00,42.3,33.5,30.12,NW,324,0.0,0.0,71,0.00,,,0.00,VWS V14.01,2013-10-26 05:23:00,
2013-10-25 22:29:00,42.1,33.4,30.12,NW,324,0.0,0.0,71,0.00,,,0.00,VWS V14.01,2013-10-26 05:29:00,
2013-10-25 22:34:00,41.9,33.2,30.12,NW,324,0.0,0.0,71,0.00,,,0.00,VWS V14.01,2013-10-26 05:34:00,
2013-10-25 22:40:00,41.5,32.8,30.12,NW,324,0.0,0.0,71,0.00,,,0.00,VWS V14.01,2013-10-26 05:40:00,
2013-10-25 22:46:00,41.2,32.5,30.12,NW,324,0.0,0.0,71,0.00,,,0.00,VWS V14.01,2013-10-26 05:46:00,
2013-10-25 22:51:00,41.0,32.3,30.12,NW,324,0.0,0.0,71,0.00,,,0.00,VWS V14.01,2013-10-26 05:51:00,
2013-10-25 22:57:00,40.6,32.3,30.12,NW,324,0.0,0.0,72,0.00,,,0.00,VWS V14.01,2013-10-26 05:57:00,
2013-10-25 23:02:00,40.3,32.0,30.12,NW,324,0.0,0.0,72,0.00,,,0.00,VWS V14.01,2013-10-26 06:02:00,
2013-10-25 23:08:00,40.1,31.8,30.12,NW,324,0.0,0.0,72,0.00,,,0.00,VWS V14.01,2013-10-26 06:08:00,
2013-10-25 23:14:00,39.9,31.6,30.12,NW,324,0.0,0.0,72,0.00,,,0.00,VWS V14.01,2013-10-26 06:14:00,
2013-10-25 23:19:00,39.7,31.5,30.12,NW,324,0.0,0.0,72,0.00,,,0.00,VWS V14.01,2013-10-26 06:19:00,
2013-10-25 23:25:00,39.7,31.5,30.12,NW,324,0.0,0.0,72,0.00,,,0.00,VWS V14.01,2013-10-26 06:25:00,
2013-10-25 23:30:00,39.6,31.3,30.12,NW,324,0.0,0.0,72,0.00,,,0.00,VWS V14.01,2013-10-26 06:30:00,
2013-10-25 23:36:00,39.6,31.3,30.12,NW,324,0.0,0.0,72,0.00,,,0.00,VWS V14.01,2013-10-26 06:36:00,
2013-10-25 23:41:00,39.6,31.3,30.12,NW,324,0.0,0.0,72,0.00,,,0.00,VWS V14.01,2013-10-26 06:41:00,
2013-10-25 23:47:00,39.6,31.3,30.09,NW,324,0.0,0.0,72,0.00,,,0.00,VWS V14.01,2013-10-26 06:47:00,
2013-10-25 23:52:00,39.7,31.5,30.09,NW,324,0.0,0.0,72,0.00,,,0.00,VWS V14.01,2013-10-26 06:52:00,
2013-10-25 23:57:00,40.1,31.8,30.09,NW,324,0.0,0.0,72,0.00,,,0.00,VWS V14.01,2013-10-26 06:57:00,